,,,PA_Meas_PMT16A,,PR_Meas_QMR101_102,,RH_Meas_QMH101,,SR_Meas_QMS101,,TA_Meas_QMH101,,GenWind,,GenWind,
date,time,status,PA,status,PR,status,RH,status,SR,status,TA,status,DirAvg,status,SpdAvg,
2009-03-09, 00:00:04,VALID,1012.08,VALID,1,VALID,94.0179,VALID,0,VALID,23.9278,VALID,105,VALID,0.889453,
2009-03-09, 00:01:04,VALID,1012.12,VALID,1,VALID,94.0255,VALID,0.105969,VALID,23.9084,VALID,73,VALID,0.610156,
2009-03-09, 00:02:04,VALID,1012.13,VALID,1.5,VALID,94.0408,VALID,0,VALID,23.8871,VALID,70,VALID,0.046875,
2009-03-09, 00:03:04,VALID,1012.18,VALID,1,VALID,94.0865,VALID,0,VALID,23.9084,VALID,70,VALID,0.021875,
2009-03-09, 00:04:04,VALID,1012.2,VALID,1.5,VALID,94.0942,VALID,0,VALID,23.8889,VALID,70,VALID,0,
2009-03-09, 00:05:04,VALID,1012.2,VALID,1,VALID,94.1247,VALID,0,VALID,23.8889,VALID,70,VALID,0,
2009-03-09, 00:06:04,VALID,1012.23,VALID,1,VALID,94.1399,VALID,0,VALID,23.8889,VALID,76,VALID,0.151953,
2009-03-09, 00:07:04,VALID,1012.21,VALID,1,VALID,94.1399,VALID,0,VALID,23.8889,VALID,223,VALID,0.938672,
2009-03-09, 00:08:04,VALID,1012.24,VALID,0.5,VALID,94.1628,VALID,0,VALID,23.8889,VALID,235,VALID,0.905859,
2009-03-09, 00:09:04,VALID,1012.22,VALID,1,VALID,94.1857,VALID,0,VALID,23.8694,VALID,235,VALID,0.500391,
2009-03-09, 00:10:04,VALID,1012.2,VALID,0.5,VALID,94.2009,VALID,0,VALID,23.8499,VALID,213,VALID,0.590234,
2009-03-09, 00:11:04,VALID,1012.21,VALID,0.5,VALID,94.2238,VALID,0,VALID,23.8499,VALID,200,VALID,1.30391,
2009-03-09, 00:12:04,VALID,1012.18,VALID,0.5,VALID,94.2543,VALID,0,VALID,23.8481,VALID,214,VALID,0.802344,
2009-03-09, 00:13:04,VALID,1012.22,VALID,0.5,VALID,94.2543,VALID,0,VALID,23.8499,VALID,182,VALID,0.905078,
2009-03-09, 00:14:04,VALID,1012.19,VALID,0.5,VALID,94.2619,VALID,0,VALID,23.8499,VALID,190,VALID,1.52695,
2009-03-09, 00:15:04,VALID,1012.17,VALID,0.5,VALID,94.2924,VALID,0,VALID,23.8694,VALID,183,VALID,1.65508,
2009-03-09, 00:16:04,VALID,1012.23,VALID,1,VALID,94.3153,VALID,0,VALID,23.8499,VALID,189,VALID,1.28516,
2009-03-09, 00:17:04,VALID,1012.23,VALID,0.5,VALID,94.3611,VALID,0,VALID,23.8694,VALID,195,VALID,1.40391,
2009-03-09, 00:18:04,VALID,1012.21,VALID,0.5,VALID,94.3458,VALID,0,VALID,23.8481,VALID,198,VALID,1.13242,
2009-03-09, 00:19:04,VALID,1012.26,VALID,0.5,VALID,94.3534,VALID,0,VALID,23.7896,VALID,268,VALID,1.10156,
2009-03-09, 00:20:04,VALID,1012.25,VALID,0.5,VALID,94.3763,VALID,0,VALID,23.733,VALID,264,VALID,1.42773,
2009-03-09, 00:21:04,VALID,1012.22,VALID,1,VALID,94.3611,VALID,0,VALID,23.6745,VALID,301,VALID,1.81445,
2009-03-09, 00:22:04,VALID,1012.24,VALID,1,VALID,94.4068,VALID,0,VALID,23.5576,VALID,292,VALID,1.66016,
2009-03-09, 00:23:04,VALID,1012.24,VALID,0.5,VALID,94.4221,VALID,0,VALID,23.4992,VALID,299,VALID,1.98047,
2009-03-09, 00:24:04,VALID,1012.21,VALID,0.5,VALID,94.4145,VALID,0,VALID,23.4407,VALID,274,VALID,1.075,
2009-03-09, 00:25:04,VALID,1012.25,VALID,1,VALID,94.4297,VALID,0,VALID,23.3823,VALID,258,VALID,1.07578,
2009-03-09, 00:26:04,VALID,1012.29,VALID,0.5,VALID,94.4526,VALID,0,VALID,23.3628,VALID,314,VALID,1.18359,
2009-03-09, 00:27:04,VALID,1012.3,VALID,1,VALID,94.4526,VALID,0,VALID,23.2848,VALID,319,VALID,1.25664,
2009-03-09, 00:28:04,VALID,1012.3,VALID,0.5,VALID,94.4602,VALID,0,VALID,23.2459,VALID,286,VALID,0.773047,
2009-03-09, 00:29:04,VALID,1012.3,VALID,0.5,VALID,94.4755,VALID,0,VALID,23.2069,VALID,320,VALID,1.02383,
2009-03-09, 00:30:04,VALID,1012.32,VALID,0.5,VALID,94.4907,VALID,0,VALID,23.1095,VALID,309,VALID,1.84844,
2009-03-09, 00:31:04,VALID,1012.33,VALID,1.5,VALID,94.4983,VALID,0,VALID,23.0298,VALID,311,VALID,1.13789,
2009-03-09, 00:32:04,VALID,1012.31,VALID,1.5,VALID,94.5288,VALID,0,VALID,23.0316,VALID,322,VALID,0.928516,
2009-03-09, 00:33:04,VALID,1012.32,VALID,1.5,VALID,94.5441,VALID,0,VALID,23.0121,VALID,317,VALID,0.167187,
2009-03-09, 00:34:04,VALID,1012.29,VALID,1.5,VALID,94.5517,VALID,0,VALID,23.0121,VALID,276,VALID,0.835156,
2009-03-09, 00:35:04,VALID,1012.3,VALID,1.5,VALID,94.567,VALID,0,VALID,23.0103,VALID,214,VALID,0.878906,
2009-03-09, 00:36:04,VALID,1012.29,VALID,1,VALID,94.567,VALID,0,VALID,23.0511,VALID,213,VALID,0.227734,
2009-03-09, 00:37:04,VALID,1012.27,VALID,1.5,VALID,94.5898,VALID,0,VALID,23.0316,VALID,214,VALID,0,
2009-03-09, 00:38:04,VALID,1012.17,VALID,1.5,VALID,94.6051,VALID,0,VALID,23.0511,VALID,214,VALID,0,
2009-03-09, 00:39:04,VALID,1012.09,VALID,1,VALID,94.5975,VALID,0,VALID,23.0316,VALID,209,VALID,0.878906,
2009-03-09, 00:40:04,VALID,1012.03,VALID,1,VALID,94.6432,VALID,0,VALID,22.9909,VALID,218,VALID,0.666797,
2009-03-09, 00:41:04,VALID,1012.04,VALID,0.5,VALID,94.6661,VALID,0,VALID,23.0121,VALID,222,VALID,0.704687,
2009-03-09, 00:42:04,VALID,1012.04,VALID,0.5,VALID,94.6661,VALID,0,VALID,23.0121,VALID,244,VALID,0.241797,
2009-03-09, 00:43:04,VALID,1012.04,VALID,0.5,VALID,94.6737,VALID,0,VALID,23.0316,VALID,254,VALID,0.182812,
2009-03-09, 00:44:04,VALID,1011.99,VALID,1,VALID,94.6966,VALID,0,VALID,23.0511,VALID,256,VALID,0,
2009-03-09, 00:45:04,VALID,1011.97,VALID,0,VALID,94.6966,VALID,0,VALID,23.0316,VALID,195,VALID,0.661719,
2009-03-09, 00:46:04,VALID,1011.96,VALID,0.5,VALID,94.7042,VALID,0,VALID,23.0511,VALID,207,VALID,0.596094,
2009-03-09, 00:47:04,VALID,1011.94,VALID,0,VALID,94.7195,VALID,0,VALID,23.0511,VALID,229,VALID,0.766406,
2009-03-09, 00:48:04,VALID,1011.93,VALID,0.5,VALID,94.7271,VALID,0,VALID,23.0316,VALID,241,VALID,0.7875,
2009-03-09, 00:49:04,VALID,1011.93,VALID,0.5,VALID,94.7347,VALID,0,VALID,23.0298,VALID,228,VALID,0.930469,
2009-03-09, 00:50:04,VALID,1011.91,VALID,0.5,VALID,94.7576,VALID,0,VALID,23.0103,VALID,236,VALID,1.11445,
2009-03-09, 00:51:04,VALID,1011.9,VALID,0.5,VALID,94.7347,VALID,0,VALID,23.0103,VALID,230,VALID,0.961719,
2009-03-09, 00:52:04,VALID,1011.87,VALID,0,VALID,94.7729,VALID,0,VALID,23.0316,VALID,230,VALID,0.691797,
2009-03-09, 00:53:04,VALID,1011.88,VALID,0.5,VALID,94.7576,VALID,0,VALID,23.0298,VALID,218,VALID,0.644922,
2009-03-09, 00:54:04,VALID,1011.86,VALID,0.5,VALID,94.7805,VALID,0,VALID,23.0298,VALID,247,VALID,0.251953,
2009-03-09, 00:55:04,VALID,1011.87,VALID,0.5,VALID,94.7881,VALID,0,VALID,23.0493,VALID,267,VALID,0.739844,
2009-03-09, 00:56:04,VALID,1011.86,VALID,0,VALID,94.7729,VALID,0,VALID,23.0298,VALID,248,VALID,0.640234,
2009-03-09, 00:57:04,VALID,1011.82,VALID,0.5,VALID,94.7805,VALID,0,VALID,23.0103,VALID,230,VALID,1.04375,
2009-03-09, 00:58:04,VALID,1011.84,VALID,0.5,VALID,94.7881,VALID,0,VALID,22.9714,VALID,224,VALID,1.31094,
2009-03-09, 00:59:04,VALID,1011.84,VALID,0,VALID,94.7957,VALID,0,VALID,22.9324,VALID,203,VALID,0.777734,
2009-03-09, 01:00:04,VALID,1011.81,VALID,0,VALID,94.8034,VALID,0,VALID,22.9536,VALID,177,VALID,0.900391,
2009-03-09, 01:01:04,VALID,1011.81,VALID,0.5,VALID,94.8262,VALID,0,VALID,22.9147,VALID,210,VALID,0.717969,
2009-03-09, 01:02:04,VALID,1011.8,VALID,0,VALID,94.8415,VALID,0,VALID,22.8545,VALID,222,VALID,1.15586,
2009-03-09, 01:03:04,VALID,1011.79,VALID,0,VALID,94.8415,VALID,0,VALID,22.8562,VALID,221,VALID,1.20352,
2009-03-09, 01:04:04,VALID,1011.8,VALID,0,VALID,94.8644,VALID,0,VALID,22.7961,VALID,226,VALID,1.4582,
2009-03-09, 01:05:04,VALID,1011.75,VALID,0.5,VALID,94.8796,VALID,0,VALID,22.7978,VALID,224,VALID,1.15078,
2009-03-09, 01:06:04,VALID,1011.71,VALID,0,VALID,94.8949,VALID,0,VALID,22.7978,VALID,222,VALID,0.683594,
2009-03-09, 01:07:04,VALID,1011.66,VALID,0,VALID,94.9025,VALID,0,VALID,22.7182,VALID,220,VALID,0.894141,
2009-03-09, 01:08:04,VALID,1011.61,VALID,0.5,VALID,94.9178,VALID,0,VALID,22.7199,VALID,187,VALID,0.815625,
2009-03-09, 01:09:04,VALID,1011.57,VALID,0,VALID,94.9178,VALID,0,VALID,22.7182,VALID,260,VALID,0.855469,
2009-03-09, 01:10:04,VALID,1011.52,VALID,0,VALID,94.9101,VALID,0,VALID,22.6402,VALID,230,VALID,0.573828,
2009-03-09, 01:11:04,VALID,1011.48,VALID,0.5,VALID,94.9178,VALID,0,VALID,22.6225,VALID,221,VALID,0.339844,
2009-03-09, 01:12:04,VALID,1011.44,VALID,0,VALID,94.9254,VALID,0,VALID,22.6225,VALID,256,VALID,0.117188,
2009-03-09, 01:13:04,VALID,1011.4,VALID,0,VALID,94.9483,VALID,0,VALID,22.5835,VALID,283,VALID,0.297656,
2009-03-09, 01:14:04,VALID,1011.37,VALID,0,VALID,94.9559,VALID,0,VALID,22.564,VALID,285,VALID,0.383203,
2009-03-09, 01:15:04,VALID,1011.34,VALID,0.5,VALID,94.9254,VALID,0.105969,VALID,22.5429,VALID,284,VALID,0.16875,
2009-03-09, 01:16:04,VALID,1011.35,VALID,0,VALID,94.9635,VALID,0,VALID,22.5056,VALID,231,VALID,0.154687,
2009-03-09, 01:17:04,VALID,1011.32,VALID,0,VALID,94.9559,VALID,0,VALID,22.4667,VALID,177,VALID,0,
2009-03-09, 01:18:04,VALID,1011.32,VALID,0,VALID,94.9788,VALID,0,VALID,22.426,VALID,167,VALID,0,
2009-03-09, 01:19:04,VALID,1011.31,VALID,0,VALID,94.9788,VALID,0,VALID,22.426,VALID,166,VALID,0,
2009-03-09, 01:20:04,VALID,1011.28,VALID,0,VALID,94.994,VALID,0,VALID,22.4667,VALID,150,VALID,0.711328,
2009-03-09, 01:21:04,VALID,1011.25,VALID,0,VALID,94.994,VALID,0,VALID,22.4861,VALID,151,VALID,0.754297,
2009-03-09, 01:22:04,VALID,1011.21,VALID,0.5,VALID,94.9788,VALID,0,VALID,22.4667,VALID,168,VALID,0.920313,
2009-03-09, 01:23:04,VALID,1011.22,VALID,0,VALID,95.0093,VALID,0,VALID,22.4878,VALID,170,VALID,0.725781,
2009-03-09, 01:24:04,VALID,1011.21,VALID,0,VALID,94.994,VALID,0,VALID,22.4455,VALID,170,VALID,0.505078,
2009-03-09, 01:25:04,VALID,1011.19,VALID,0,VALID,94.994,VALID,0,VALID,22.5056,VALID,170,VALID,0.463672,
2009-03-09, 01:26:04,VALID,1011.19,VALID,0,VALID,95.0093,VALID,0,VALID,22.5251,VALID,170,VALID,0.427734,
2009-03-09, 01:27:04,VALID,1011.15,VALID,0,VALID,95.0093,VALID,0,VALID,22.5039,VALID,153,VALID,0.583594,
2009-03-09, 01:28:04,VALID,1011.14,VALID,0,VALID,95.0245,VALID,0,VALID,22.5056,VALID,120,VALID,0.705078,
2009-03-09, 01:29:04,VALID,1011.13,VALID,0,VALID,95.0398,VALID,0,VALID,22.5039,VALID,121,VALID,0.269531,
2009-03-09, 01:30:04,VALID,1011.11,VALID,0,VALID,95.0169,VALID,0,VALID,22.5056,VALID,121,VALID,0,
2009-03-09, 01:31:04,VALID,1011.11,VALID,0,VALID,95.0169,VALID,0,VALID,22.5251,VALID,107,VALID,0,
2009-03-09, 01:32:04,VALID,1011.11,VALID,0.5,VALID,95.055,VALID,0,VALID,22.5251,VALID,107,VALID,0,
2009-03-09, 01:33:04,VALID,1011.07,VALID,0,VALID,95.0474,VALID,0,VALID,22.5251,VALID,111,VALID,0.492969,
2009-03-09, 01:34:04,VALID,1011.08,VALID,0,VALID,95.0321,VALID,0,VALID,22.5429,VALID,108,VALID,0.479688,
2009-03-09, 01:35:04,VALID,1011.08,VALID,0,VALID,95.0245,VALID,0,VALID,22.5623,VALID,107,VALID,0.582812,
2009-03-09, 01:36:04,VALID,1011.05,VALID,0,VALID,95.0321,VALID,0,VALID,22.6013,VALID,107,VALID,0.348047,
2009-03-09, 01:37:04,VALID,1011.03,VALID,0,VALID,95.0321,VALID,0,VALID,22.642,VALID,107,VALID,0.476953,
2009-03-09, 01:38:04,VALID,1011.04,VALID,0,VALID,95.0474,VALID,0,VALID,22.642,VALID,113,VALID,0.814062,
2009-03-09, 01:39:04,VALID,1011.04,VALID,0,VALID,95.0398,VALID,0,VALID,22.6614,VALID,124,VALID,0.873438,
2009-03-09, 01:40:04,VALID,1011.06,VALID,0,VALID,95.0474,VALID,0,VALID,22.6597,VALID,97,VALID,0.636328,
2009-03-09, 01:41:04,VALID,1011.04,VALID,0,VALID,95.0169,VALID,0,VALID,22.6809,VALID,94,VALID,0.411328,
2009-03-09, 01:42:04,VALID,1011.05,VALID,0,VALID,95.0321,VALID,0,VALID,22.6792,VALID,87,VALID,0.688672,
2009-03-09, 01:43:04,VALID,1011.03,VALID,0.5,VALID,95.055,VALID,0,VALID,22.6792,VALID,87,VALID,0.889453,
2009-03-09, 01:44:04,VALID,1011.04,VALID,0,VALID,95.0321,VALID,0,VALID,22.7199,VALID,95,VALID,0.862109,
2009-03-09, 01:45:04,VALID,1011.03,VALID,0,VALID,95.0321,VALID,0,VALID,22.6792,VALID,109,VALID,1.03906,
2009-03-09, 01:46:04,VALID,1011.01,VALID,0,VALID,95.0398,VALID,0,VALID,22.7004,VALID,105,VALID,0.95,
2009-03-09, 01:47:04,VALID,1010.98,VALID,0,VALID,95.0626,VALID,0,VALID,22.7394,VALID,95,VALID,0.938281,
2009-03-09, 01:48:04,VALID,1010.98,VALID,0,VALID,95.0779,VALID,0,VALID,22.7199,VALID,91,VALID,1.05508,
2009-03-09, 01:49:04,VALID,1010.97,VALID,0,VALID,95.0474,VALID,0,VALID,22.7199,VALID,88,VALID,0.93125,
2009-03-09, 01:50:04,VALID,1010.95,VALID,0,VALID,95.0321,VALID,0,VALID,22.7199,VALID,82,VALID,0.844531,
2009-03-09, 01:51:04,VALID,1010.93,VALID,0,VALID,95.0398,VALID,0,VALID,22.7394,VALID,53,VALID,0.479297,
2009-03-09, 01:52:04,VALID,1010.93,VALID,0,VALID,95.0474,VALID,0,VALID,22.7199,VALID,55,VALID,0.439063,
2009-03-09, 01:53:04,VALID,1010.91,VALID,0,VALID,95.055,VALID,0,VALID,22.7004,VALID,69,VALID,0.574609,
2009-03-09, 01:54:04,VALID,1010.9,VALID,0,VALID,95.0703,VALID,0,VALID,22.7004,VALID,59,VALID,0.787109,
2009-03-09, 01:55:04,VALID,1010.9,VALID,0,VALID,95.0626,VALID,0,VALID,22.6597,VALID,62,VALID,1.06875,
2009-03-09, 01:56:04,VALID,1010.88,VALID,0,VALID,95.0703,VALID,0,VALID,22.6614,VALID,79,VALID,0.639844,
2009-03-09, 01:57:04,VALID,1010.88,VALID,0,VALID,95.0703,VALID,0,VALID,22.7004,VALID,93,VALID,0.484766,
2009-03-09, 01:58:04,VALID,1010.88,VALID,0,VALID,95.0626,VALID,0,VALID,22.7199,VALID,104,VALID,0.728516,
2009-03-09, 01:59:04,VALID,1010.83,VALID,0,VALID,95.055,VALID,0,VALID,22.7199,VALID,95,VALID,0.53125,
2009-03-09, 02:00:04,VALID,1010.82,VALID,0,VALID,95.0779,VALID,0,VALID,22.7004,VALID,116,VALID,0.515234,
2009-03-09, 02:01:04,VALID,1010.81,VALID,0,VALID,95.0855,VALID,0,VALID,22.7199,VALID,124,VALID,0,
2009-03-09, 02:02:04,VALID,1010.8,VALID,0,VALID,95.0703,VALID,0,VALID,22.7394,VALID,124,VALID,0.00429688,
2009-03-09, 02:03:04,VALID,1010.78,VALID,0,VALID,95.1008,VALID,0,VALID,22.7588,VALID,125,VALID,0.253125,
2009-03-09, 02:04:04,VALID,1010.79,VALID,0,VALID,95.1084,VALID,0,VALID,22.7394,VALID,124,VALID,0,
2009-03-09, 02:05:04,VALID,1010.76,VALID,0,VALID,95.116,VALID,0,VALID,22.7588,VALID,124,VALID,0,
2009-03-09, 02:06:04,VALID,1010.74,VALID,0,VALID,95.1084,VALID,0,VALID,22.7199,VALID,122,VALID,0.647266,
2009-03-09, 02:07:04,VALID,1010.73,VALID,0.5,VALID,95.1084,VALID,0,VALID,22.6987,VALID,126,VALID,0.461719,
2009-03-09, 02:08:04,VALID,1010.72,VALID,0,VALID,95.1008,VALID,0,VALID,22.7394,VALID,126,VALID,0.366797,
2009-03-09, 02:09:04,VALID,1010.72,VALID,0,VALID,95.1236,VALID,0,VALID,22.7376,VALID,126,VALID,0.407031,
2009-03-09, 02:10:04,VALID,1010.74,VALID,0,VALID,95.116,VALID,0,VALID,22.7394,VALID,137,VALID,0.630469,
2009-03-09, 02:11:04,VALID,1010.73,VALID,0,VALID,95.1236,VALID,0,VALID,22.7182,VALID,138,VALID,0.980859,
2009-03-09, 02:12:04,VALID,1010.7,VALID,0,VALID,95.116,VALID,0,VALID,22.7182,VALID,135,VALID,0.682422,
2009-03-09, 02:13:04,VALID,1010.72,VALID,0,VALID,95.1084,VALID,0,VALID,22.6987,VALID,150,VALID,0.578125,
2009-03-09, 02:14:04,VALID,1010.71,VALID,0,VALID,95.1389,VALID,0,VALID,22.6987,VALID,150,VALID,0.398438,
2009-03-09, 02:15:04,VALID,1010.69,VALID,0,VALID,95.1465,VALID,0,VALID,22.7004,VALID,151,VALID,0.478125,
2009-03-09, 02:16:04,VALID,1010.7,VALID,0,VALID,95.1618,VALID,0,VALID,22.7004,VALID,152,VALID,0.375,
2009-03-09, 02:17:04,VALID,1010.68,VALID,0,VALID,95.1236,VALID,0,VALID,22.7199,VALID,152,VALID,0.200391,
2009-03-09, 02:18:04,VALID,1010.66,VALID,0,VALID,95.1389,VALID,0,VALID,22.7199,VALID,152,VALID,0.25625,
2009-03-09, 02:19:04,VALID,1010.65,VALID,0,VALID,95.1389,VALID,0,VALID,22.7004,VALID,152,VALID,0,
2009-03-09, 02:20:04,VALID,1010.6,VALID,0,VALID,95.1542,VALID,0,VALID,22.6987,VALID,152,VALID,0,
2009-03-09, 02:21:04,VALID,1010.59,VALID,0,VALID,95.1618,VALID,0,VALID,22.7182,VALID,152,VALID,0,
2009-03-09, 02:22:04,VALID,1010.57,VALID,0,VALID,95.1389,VALID,0,VALID,22.7199,VALID,152,VALID,0,
2009-03-09, 02:23:04,VALID,1010.55,VALID,0,VALID,95.1313,VALID,0,VALID,22.7394,VALID,152,VALID,0,
2009-03-09, 02:24:04,VALID,1010.55,VALID,0,VALID,95.1465,VALID,0,VALID,22.7588,VALID,152,VALID,0,
2009-03-09, 02:25:04,VALID,1010.53,VALID,0,VALID,95.1389,VALID,0,VALID,22.7199,VALID,152,VALID,0,
2009-03-09, 02:26:04,VALID,1010.52,VALID,0,VALID,95.1618,VALID,0,VALID,22.7199,VALID,152,VALID,0,
2009-03-09, 02:27:04,VALID,1010.48,VALID,0,VALID,95.1542,VALID,0,VALID,22.7004,VALID,152,VALID,0,
2009-03-09, 02:28:04,VALID,1010.48,VALID,0,VALID,95.1465,VALID,0,VALID,22.7004,VALID,152,VALID,0,
2009-03-09, 02:29:04,VALID,1010.48,VALID,0,VALID,95.1389,VALID,0,VALID,22.7199,VALID,152,VALID,0,
2009-03-09, 02:30:04,VALID,1010.45,VALID,0,VALID,95.1542,VALID,0,VALID,22.7004,VALID,152,VALID,0,
2009-03-09, 02:31:04,VALID,1010.48,VALID,0,VALID,95.1694,VALID,0,VALID,22.7004,VALID,152,VALID,0,
2009-03-09, 02:32:04,VALID,1010.44,VALID,0,VALID,95.1618,VALID,0,VALID,22.7004,VALID,152,VALID,0,
2009-03-09, 02:33:04,VALID,1010.44,VALID,0,VALID,95.177,VALID,0,VALID,22.6597,VALID,152,VALID,0,
2009-03-09, 02:34:04,VALID,1010.43,VALID,0,VALID,95.1694,VALID,0,VALID,22.6809,VALID,152,VALID,0,
2009-03-09, 02:35:04,VALID,1010.42,VALID,0,VALID,95.1847,VALID,0,VALID,22.6809,VALID,152,VALID,0,
2009-03-09, 02:36:04,VALID,1010.41,VALID,0,VALID,95.177,VALID,0,VALID,22.6809,VALID,152,VALID,0,
2009-03-09, 02:37:04,VALID,1010.4,VALID,0,VALID,95.1694,VALID,0,VALID,22.7004,VALID,152,VALID,0,
2009-03-09, 02:38:04,VALID,1010.4,VALID,0,VALID,95.177,VALID,0,VALID,22.6987,VALID,152,VALID,0,
2009-03-09, 02:39:04,VALID,1010.36,VALID,0,VALID,95.1847,VALID,0,VALID,22.6792,VALID,152,VALID,0,
2009-03-09, 02:40:04,VALID,1010.35,VALID,0,VALID,95.1694,VALID,0,VALID,22.7004,VALID,185,VALID,0,
2009-03-09, 02:41:04,VALID,1010.34,VALID,0,VALID,95.177,VALID,0,VALID,22.6614,VALID,210,VALID,0,
2009-03-09, 02:42:04,VALID,1010.35,VALID,0,VALID,95.1923,VALID,0,VALID,22.6614,VALID,210,VALID,0,
2009-03-09, 02:43:04,VALID,1010.35,VALID,0,VALID,95.1694,VALID,0,VALID,22.6402,VALID,210,VALID,0,
2009-03-09, 02:44:04,VALID,1010.32,VALID,0,VALID,95.1999,VALID,0,VALID,22.642,VALID,210,VALID,0,
2009-03-09, 02:45:04,VALID,1010.32,VALID,0,VALID,95.1923,VALID,0,VALID,22.642,VALID,211,VALID,0,
2009-03-09, 02:46:04,VALID,1010.33,VALID,0.5,VALID,95.1923,VALID,0,VALID,22.6225,VALID,218,VALID,0,
2009-03-09, 02:47:04,VALID,1010.31,VALID,0,VALID,95.1999,VALID,0.105969,VALID,22.642,VALID,222,VALID,0,
2009-03-09, 02:48:04,VALID,1010.28,VALID,0,VALID,95.1847,VALID,0,VALID,22.642,VALID,230,VALID,0,
2009-03-09, 02:49:04,VALID,1010.31,VALID,0,VALID,95.1999,VALID,0,VALID,22.6597,VALID,230,VALID,0,
2009-03-09, 02:50:04,VALID,1010.26,VALID,0,VALID,95.1999,VALID,0.105969,VALID,22.642,VALID,230,VALID,0,
2009-03-09, 02:51:04,VALID,1010.26,VALID,0,VALID,95.2075,VALID,0,VALID,22.6614,VALID,230,VALID,0,
2009-03-09, 02:52:04,VALID,1010.19,VALID,0,VALID,95.1923,VALID,0,VALID,22.6597,VALID,230,VALID,0,
2009-03-09, 02:53:04,VALID,1010.21,VALID,0,VALID,95.1999,VALID,0,VALID,22.6809,VALID,230,VALID,0,
2009-03-09, 02:54:04,VALID,1010.21,VALID,0,VALID,95.1999,VALID,0,VALID,22.7004,VALID,230,VALID,0,
2009-03-09, 02:55:05,VALID,1010.18,VALID,0,VALID,95.1847,VALID,0,VALID,22.6987,VALID,230,VALID,0,
2009-03-09, 02:56:05,VALID,1010.14,VALID,0,VALID,95.1923,VALID,0,VALID,22.7394,VALID,230,VALID,0,
2009-03-09, 02:57:05,VALID,1010.11,VALID,0,VALID,95.2228,VALID,0,VALID,22.7199,VALID,230,VALID,0,
2009-03-09, 02:58:05,VALID,1010.12,VALID,0,VALID,95.2075,VALID,0,VALID,22.6987,VALID,230,VALID,0,
2009-03-09, 02:59:05,VALID,1010.11,VALID,0,VALID,95.1999,VALID,0,VALID,22.7182,VALID,230,VALID,0,
2009-03-09, 03:00:05,VALID,1010.12,VALID,0,VALID,95.1847,VALID,0,VALID,22.7199,VALID,230,VALID,0,
2009-03-09, 03:01:05,VALID,1010.1,VALID,0,VALID,95.1999,VALID,0,VALID,22.7182,VALID,230,VALID,0,
2009-03-09, 03:02:05,VALID,1010.11,VALID,0,VALID,95.2075,VALID,0,VALID,22.7394,VALID,230,VALID,0,
2009-03-09, 03:03:05,VALID,1010.1,VALID,0,VALID,95.2075,VALID,0,VALID,22.7199,VALID,230,VALID,0,
2009-03-09, 03:04:05,VALID,1010.1,VALID,0,VALID,95.2152,VALID,0,VALID,22.7394,VALID,230,VALID,0,
2009-03-09, 03:05:05,VALID,1010.09,VALID,0,VALID,95.2075,VALID,0,VALID,22.7182,VALID,230,VALID,0,
2009-03-09, 03:06:05,VALID,1010.1,VALID,0,VALID,95.2075,VALID,0,VALID,22.7182,VALID,230,VALID,0,
2009-03-09, 03:07:05,VALID,1010.09,VALID,0,VALID,95.2075,VALID,0,VALID,22.7199,VALID,230,VALID,0,
2009-03-09, 03:08:05,VALID,1010.09,VALID,0,VALID,95.1999,VALID,0,VALID,22.6792,VALID,230,VALID,0,
2009-03-09, 03:09:05,VALID,1010.09,VALID,0,VALID,95.2075,VALID,0,VALID,22.7199,VALID,230,VALID,0,
2009-03-09, 03:10:05,VALID,1010.09,VALID,0,VALID,95.2228,VALID,0,VALID,22.6809,VALID,230,VALID,0,
2009-03-09, 03:11:05,VALID,1010.1,VALID,0,VALID,95.1999,VALID,0,VALID,22.6987,VALID,230,VALID,0,
2009-03-09, 03:12:05,VALID,1010.08,VALID,0,VALID,95.2075,VALID,0,VALID,22.7004,VALID,230,VALID,0,
2009-03-09, 03:13:05,VALID,1010.1,VALID,0,VALID,95.2075,VALID,0,VALID,22.7199,VALID,230,VALID,0,
2009-03-09, 03:14:05,VALID,1010.1,VALID,0,VALID,95.2304,VALID,0,VALID,22.6987,VALID,230,VALID,0,
2009-03-09, 03:15:05,VALID,1010.08,VALID,0,VALID,95.238,VALID,0,VALID,22.7199,VALID,230,VALID,0,
2009-03-09, 03:16:05,VALID,1010.08,VALID,0,VALID,95.2304,VALID,0,VALID,22.7394,VALID,230,VALID,0,
2009-03-09, 03:17:05,VALID,1010.08,VALID,0,VALID,95.238,VALID,0,VALID,22.7394,VALID,230,VALID,0,
2009-03-09, 03:18:05,VALID,1010.08,VALID,0,VALID,95.2152,VALID,0,VALID,22.7394,VALID,230,VALID,0,
2009-03-09, 03:19:05,VALID,1010.06,VALID,0,VALID,95.2075,VALID,0,VALID,22.7394,VALID,230,VALID,0,
2009-03-09, 03:20:05,VALID,1010.04,VALID,0,VALID,95.2228,VALID,0,VALID,22.7004,VALID,350,VALID,0,
2009-03-09, 03:21:05,VALID,1010.06,VALID,0,VALID,95.2304,VALID,0,VALID,22.6809,VALID,350,VALID,0,
2009-03-09, 03:22:05,VALID,1010.05,VALID,0,VALID,95.2228,VALID,0,VALID,22.6614,VALID,350,VALID,0,
2009-03-09, 03:23:05,VALID,1010.06,VALID,0,VALID,95.2457,VALID,0,VALID,22.6614,VALID,350,VALID,0,
2009-03-09, 03:24:05,VALID,1010.05,VALID,0,VALID,95.238,VALID,0,VALID,22.6597,VALID,350,VALID,0,
2009-03-09, 03:25:05,VALID,1010.05,VALID,0,VALID,95.2609,VALID,0,VALID,22.7004,VALID,350,VALID,0,
2009-03-09, 03:26:05,VALID,1010.04,VALID,0,VALID,95.2304,VALID,0,VALID,22.6792,VALID,350,VALID,0,
2009-03-09, 03:27:05,VALID,1010.05,VALID,0,VALID,95.2304,VALID,0,VALID,22.7199,VALID,350,VALID,0,
2009-03-09, 03:28:05,VALID,1010.06,VALID,0,VALID,95.2533,VALID,0,VALID,22.6987,VALID,350,VALID,0,
2009-03-09, 03:29:05,VALID,1010.08,VALID,0,VALID,95.2457,VALID,0,VALID,22.7199,VALID,346,VALID,0,
2009-03-09, 03:30:05,VALID,1010.11,VALID,0,VALID,95.238,VALID,0,VALID,22.7182,VALID,343,VALID,0,
2009-03-09, 03:31:05,VALID,1010.12,VALID,0,VALID,95.2304,VALID,0,VALID,22.7394,VALID,342,VALID,0,
2009-03-09, 03:32:05,VALID,1010.12,VALID,0,VALID,95.2228,VALID,0,VALID,22.7394,VALID,342,VALID,0,
2009-03-09, 03:33:05,VALID,1010.14,VALID,0,VALID,95.238,VALID,0,VALID,22.7394,VALID,342,VALID,0,
2009-03-09, 03:34:05,VALID,1010.12,VALID,0,VALID,95.2457,VALID,0,VALID,22.7394,VALID,342,VALID,0,
2009-03-09, 03:35:05,VALID,1010.14,VALID,0,VALID,95.2457,VALID,0,VALID,22.7394,VALID,342,VALID,0,
2009-03-09, 03:36:05,VALID,1010.16,VALID,0,VALID,95.2457,VALID,0,VALID,22.7588,VALID,342,VALID,0,
2009-03-09, 03:37:05,VALID,1010.16,VALID,0,VALID,95.2533,VALID,0,VALID,22.7394,VALID,342,VALID,0,
2009-03-09, 03:38:05,VALID,1010.17,VALID,0,VALID,95.2609,VALID,0,VALID,22.7182,VALID,342,VALID,0,
2009-03-09, 03:39:05,VALID,1010.18,VALID,0,VALID,95.2457,VALID,0,VALID,22.7394,VALID,337,VALID,0,
2009-03-09, 03:40:05,VALID,1010.2,VALID,0,VALID,95.2457,VALID,0.105969,VALID,22.7783,VALID,337,VALID,0,
2009-03-09, 03:41:05,VALID,1010.21,VALID,0,VALID,95.2533,VALID,0,VALID,22.7588,VALID,337,VALID,0,
2009-03-09, 03:42:05,VALID,1010.24,VALID,0,VALID,95.2457,VALID,0,VALID,22.7978,VALID,337,VALID,0,
2009-03-09, 03:43:05,VALID,1010.26,VALID,0,VALID,95.2685,VALID,0,VALID,22.7978,VALID,337,VALID,0,
2009-03-09, 03:44:05,VALID,1010.26,VALID,0,VALID,95.2457,VALID,0,VALID,22.7978,VALID,337,VALID,0,
2009-03-09, 03:45:05,VALID,1010.27,VALID,0,VALID,95.2685,VALID,0,VALID,22.7978,VALID,290,VALID,0,
2009-03-09, 03:46:05,VALID,1010.28,VALID,0,VALID,95.2685,VALID,0,VALID,22.7766,VALID,351,VALID,0.186719,
2009-03-09, 03:47:05,VALID,1010.31,VALID,0,VALID,95.2609,VALID,0,VALID,22.8173,VALID,270,VALID,0.395312,
2009-03-09, 03:48:05,VALID,1010.32,VALID,0,VALID,95.2457,VALID,0,VALID,22.7978,VALID,305,VALID,0.555469,
2009-03-09, 03:49:05,VALID,1010.32,VALID,0,VALID,95.2533,VALID,0,VALID,22.7783,VALID,305,VALID,0.553516,
2009-03-09, 03:50:05,VALID,1010.34,VALID,0,VALID,95.2609,VALID,0,VALID,22.7766,VALID,309,VALID,0.475,